TimeAKST,TemperatureF,Dew PointF,Humidity,Sea Level PressureIn,VisibilityMPH,Wind Direction,Wind SpeedMPH,Gust SpeedMPH,PrecipitationIn,Events,Conditions,WindDirDegrees,DateUTC
12:16 AM,32.0,23.0,69,29.77,3.0,West,27.6,38.0,N/A,,Overcast,270,2013-01-08 09:16:00
12:36 AM,32.0,24.8,75,29.78,4.0,West,26.5,40.3,N/A,,Overcast,260,2013-01-08 09:36:00
12:56 AM,32.0,23.0,69,29.80,5.0,West,23.0,39.1,N/A,,Overcast,260,2013-01-08 09:56:00
1:16 AM,32.0,23.0,69,29.80,6.0,West,23.0,39.1,N/A,,Overcast,270,2013-01-08 10:16:00
1:36 AM,30.2,23.0,75,29.81,7.0,West,17.3,39.1,N/A,,Overcast,270,2013-01-08 10:36:00
1:56 AM,32.0,23.0,69,29.82,3.0,West,24.2,50.6,N/A,,Overcast,270,2013-01-08 10:56:00
2:16 AM,30.2,23.0,75,29.83,5.0,West,20.7,40.3,N/A,,Mostly Cloudy,270,2013-01-08 11:16:00
2:36 AM,30.2,23.0,75,29.83,7.0,West,21.9,34.5,N/A,,Overcast,260,2013-01-08 11:36:00
2:56 AM,32.0,21.2,64,29.85,10.0,West,23.0,36.8,N/A,,Overcast,260,2013-01-08 11:56:00
3:16 AM,30.2,21.2,69,29.86,10.0,WSW,23.0,38.0,N/A,,Overcast,250,2013-01-08 12:16:00
3:36 AM,30.2,23.0,75,29.88,5.0,West,18.4,38.0,N/A,,Overcast,270,2013-01-08 12:36:00
3:56 AM,30.2,23.0,75,29.88,3.0,West,20.7,33.4,N/A,,Overcast,270,2013-01-08 12:56:00
4:16 AM,30.2,21.2,69,29.89,6.0,West,20.7,32.2,N/A,,Overcast,280,2013-01-08 13:16:00
4:36 AM,30.2,23.0,75,29.88,5.0,West,21.9,31.1,N/A,,Overcast,280,2013-01-08 13:36:00
4:56 AM,32.0,21.2,64,29.89,9.0,WNW,19.6,36.8,N/A,,Overcast,290,2013-01-08 13:56:00
5:16 AM,32.0,21.2,64,29.90,8.0,West,23.0,39.1,N/A,,Overcast,270,2013-01-08 14:16:00
5:36 AM,32.0,21.2,64,29.92,10.0,West,24.2,35.7,N/A,,Overcast,270,2013-01-08 14:36:00
5:56 AM,32.0,21.2,64,29.92,10.0,West,23.0,32.2,N/A,,Overcast,280,2013-01-08 14:56:00
6:16 AM,32.0,21.2,64,29.93,9.0,West,19.6,33.4,N/A,,Overcast,270,2013-01-08 15:16:00
6:36 AM,32.0,21.2,64,29.94,9.0,West,23.0,40.3,N/A,,Overcast,270,2013-01-08 15:36:00
6:56 AM,32.0,21.2,64,29.95,5.0,West,23.0,38.0,N/A,,Overcast,260,2013-01-08 15:56:00
7:16 AM,32.0,21.2,64,29.96,10.0,West,21.9,38.0,N/A,,Mostly Cloudy,270,2013-01-08 16:16:00
7:36 AM,32.0,23.0,69,29.97,5.0,West,25.3,36.8,N/A,,Overcast,260,2013-01-08 16:36:00
7:56 AM,32.0,21.2,64,29.98,10.0,West,24.2,36.8,N/A,,Mostly Cloudy,270,2013-01-08 16:56:00
8:16 AM,32.0,21.2,64,29.99,10.0,West,23.0,33.4,N/A,,Mostly Cloudy,260,2013-01-08 17:16:00
8:36 AM,32.0,21.2,64,30.00,10.0,West,23.0,34.5,N/A,,Mostly Cloudy,270,2013-01-08 17:36:00
8:56 AM,32.0,21.2,64,30.00,10.0,West,24.2,33.4,N/A,,Overcast,270,2013-01-08 17:56:00
9:16 AM,32.0,19.4,60,30.01,10.0,West,21.9,34.5,N/A,,Scattered Clouds,270,2013-01-08 18:16:00
9:56 AM,32.0,19.4,60,30.03,10.0,West,18.4,26.5,N/A,,Mostly Cloudy,280,2013-01-08 18:56:00
10:16 AM,32.0,17.6,55,30.04,10.0,WNW,12.7,24.2,N/A,,Overcast,290,2013-01-08 19:16:00
10:56 AM,32.0,17.6,55,30.06,10.0,WSW,15.0,24.2,N/A,,Scattered Clouds,250,2013-01-08 19:56:00
11:16 AM,32.0,15.8,51,30.07,10.0,West,6.9,19.6,N/A,,Mostly Cloudy,270,2013-01-08 20:16:00
11:36 AM,32.0,17.6,55,30.08,10.0,West,9.2,-,N/A,,Overcast,280,2013-01-08 20:36:00
11:56 AM,32.0,17.6,55,30.09,10.0,West,9.2,-,N/A,,Overcast,270,2013-01-08 20:56:00
12:16 PM,32.0,17.6,55,30.09,10.0,West,12.7,-,N/A,,Scattered Clouds,260,2013-01-08 21:16:00
12:36 PM,32.0,17.6,55,30.10,10.0,WSW,15.0,-,N/A,,Partly Cloudy,250,2013-01-08 21:36:00
12:56 PM,32.0,17.6,55,30.10,10.0,WSW,9.2,-,N/A,,Partly Cloudy,250,2013-01-08 21:56:00
1:16 PM,33.8,17.6,52,30.11,10.0,WSW,8.1,-,N/A,,Mostly Cloudy,250,2013-01-08 22:16:00
1:36 PM,33.8,17.6,52,30.11,10.0,West,6.9,-,N/A,,Mostly Cloudy,280,2013-01-08 22:36:00
1:56 PM,32.0,17.6,55,30.11,10.0,WSW,5.8,-,N/A,,Partly Cloudy,250,2013-01-08 22:56:00
2:16 PM,33.8,19.4,56,30.11,10.0,WNW,10.4,-,N/A,,Clear,290,2013-01-08 23:16:00
2:36 PM,33.8,17.6,52,30.10,10.0,West,6.9,-,N/A,,Clear,280,2013-01-08 23:36:00
2:56 PM,33.8,17.6,52,30.09,10.0,WSW,6.9,-,N/A,,Clear,250,2013-01-08 23:56:00
3:16 PM,32.0,17.6,55,30.09,10.0,West,3.5,-,N/A,,Clear,280,2013-01-09 00:16:00
3:36 PM,32.0,17.6,55,30.09,10.0,NNW,4.6,-,N/A,,Clear,340,2013-01-09 00:36:00
3:56 PM,32.0,19.4,60,30.09,10.0,NW,4.6,-,N/A,,Clear,320,2013-01-09 00:56:00
4:16 PM,32.0,17.6,55,30.10,10.0,NW,10.4,-,N/A,,Clear,320,2013-01-09 01:16:00
4:36 PM,32.0,19.4,60,30.11,10.0,Calm,Calm,-,N/A,,Clear,0,2013-01-09 01:36:00
4:56 PM,30.2,15.8,55,30.11,10.0,South,3.5,-,N/A,,Clear,190,2013-01-09 01:56:00
5:16 PM,30.2,17.6,60,30.10,10.0,Calm,Calm,-,N/A,,Clear,0,2013-01-09 02:16:00
5:36 PM,28.4,15.8,59,30.10,10.0,Calm,Calm,-,N/A,,Clear,0,2013-01-09 02:36:00
5:56 PM,30.2,15.8,55,30.11,10.0,East,4.6,-,N/A,,Clear,80,2013-01-09 02:56:00
6:16 PM,28.4,17.6,64,30.10,10.0,NE,4.6,-,N/A,,Clear,50,2013-01-09 03:16:00
6:36 PM,28.4,17.6,64,30.11,10.0,Calm,Calm,-,N/A,,Clear,0,2013-01-09 03:36:00
6:56 PM,26.6,17.6,69,30.11,10.0,NE,4.6,-,N/A,,Clear,40,2013-01-09 03:56:00
7:16 PM,26.6,17.6,69,30.10,10.0,NE,3.5,-,N/A,,Partly Cloudy,50,2013-01-09 04:16:00
7:36 PM,26.6,19.4,74,30.10,10.0,Calm,Calm,-,N/A,,Clear,0,2013-01-09 04:36:00
7:56 PM,26.6,17.6,69,30.10,10.0,Calm,Calm,-,N/A,,Clear,0,2013-01-09 04:56:00
8:16 PM,26.6,17.6,69,30.10,10.0,NE,3.5,-,N/A,,Clear,40,2013-01-09 05:16:00
8:36 PM,28.4,19.4,69,30.10,10.0,Calm,Calm,-,N/A,,Mostly Cloudy,0,2013-01-09 05:36:00
8:56 PM,26.6,17.6,69,30.10,10.0,Calm,Calm,-,N/A,,Overcast,0,2013-01-09 05:56:00
9:16 PM,26.6,19.4,74,30.10,10.0,SSE,3.5,-,N/A,,Overcast,150,2013-01-09 06:16:00
9:36 PM,26.6,19.4,74,30.10,10.0,SE,4.6,-,N/A,,Overcast,130,2013-01-09 06:36:00
9:56 PM,26.6,19.4,74,30.09,10.0,Calm,Calm,-,N/A,,Overcast,0,2013-01-09 06:56:00
10:16 PM,28.4,19.4,69,30.09,10.0,Calm,Calm,-,N/A,,Overcast,0,2013-01-09 07:16:00
10:36 PM,28.4,19.4,69,30.09,10.0,NE,3.5,-,N/A,,Overcast,40,2013-01-09 07:36:00
10:56 PM,28.4,19.4,69,30.08,10.0,Calm,Calm,-,N/A,,Overcast,0,2013-01-09 07:56:00
11:16 PM,28.4,21.2,74,30.08,10.0,SSE,3.5,-,N/A,,Overcast,150,2013-01-09 08:16:00
11:36 PM,28.4,21.2,74,30.08,10.0,Calm,Calm,-,N/A,,Mostly Cloudy,0,2013-01-09 08:36:00
11:56 PM,28.4,21.2,74,30.07,10.0,SSE,4.6,-,N/A,,Mostly Cloudy,150,2013-01-09 08:56:00